Location: Sungai Bunut
(2.6333°N, 113.7333°E)
Time: 16:02:06
(UTC+00:00)

Cosmos 1697 Rocket - Pass Details

Date: 25 May 2022
Orbit: 833 x 843 km, 71.0° (Epoch: 03 July)

Event Time Altitude Azimuth Distance (km) Brightness Sun altitude
Rises 12:14:02 0° 209° (SSW) 3,388 5.9 -24.9°
Reaches altitude 10° 12:16:36 10° 216° (SW) 2,453 5.2 -25.5°
Maximum altitude 12:21:51 41° 285° (WNW) 1,199 3.9 -26.7°
Drops below altitude 10° 12:27:07 10° 355° (N) 2,450 5.4 -27.9°
Sets 12:29:42 0° 2° (N) 3,383 6.1 -28.5°
